Time,TemperatureF,DewpointF,PressureIn,WindDirection,WindDirectionDegrees,WindSpeedMPH,WindSpeedGustMPH,Humidity,HourlyPrecipIn,Conditions,Clouds,dailyrainin,SoftwareType,DateUTC
2013-02-12 00:01:00,29.0,26.0,30.07,WNW,282,8.0,12.0,89,0.00,,,0.01,,2013-02-12 05:01:00,
2013-02-12 00:11:00,29.0,26.0,30.07,WNW,282,8.0,12.0,89,0.00,,,0.01,,2013-02-12 05:11:00,
2013-02-12 00:32:00,30.0,26.0,30.08,WNW,296,12.0,18.0,84,0.00,,,0.01,,2013-02-12 05:32:00,
2013-02-12 00:42:00,30.0,26.0,30.08,WNW,296,12.0,18.0,84,0.00,,,0.01,,2013-02-12 05:42:00,
2013-02-12 00:52:00,30.0,26.0,30.09,NW,309,8.0,19.0,85,0.00,,,0.01,,2013-02-12 05:52:00,
2013-02-12 01:01:00,30.0,26.0,30.09,WNW,294,9.0,14.0,86,0.00,,,0.01,,2013-02-12 06:01:00,
2013-02-12 01:12:00,30.0,26.0,30.09,WNW,290,9.0,16.0,85,0.00,,,0.01,,2013-02-12 06:12:00,
2013-02-12 01:21:00,30.0,26.0,30.09,WNW,290,9.0,16.0,85,0.00,,,0.01,,2013-02-12 06:21:00,
2013-02-12 01:32:00,30.0,26.0,30.09,WNW,290,9.0,16.0,85,0.00,,,0.01,,2013-02-12 06:32:00,
2013-02-12 01:42:00,30.0,26.0,30.09,WNW,290,9.0,16.0,85,0.00,,,0.01,,2013-02-12 06:42:00,
2013-02-12 01:51:00,30.0,26.0,30.09,WNW,290,9.0,16.0,85,0.00,,,0.01,,2013-02-12 06:51:00,
2013-02-12 02:20:00,30.0,26.0,30.11,WNW,283,7.0,14.0,86,0.00,,,0.01,,2013-02-12 07:20:00,
2013-02-12 02:22:00,30.0,26.0,30.10,West,279,9.0,13.0,84,0.00,,,0.01,,2013-02-12 07:22:00,
2013-02-12 02:32:00,30.0,26.0,30.11,WNW,283,7.0,14.0,86,0.00,,,0.01,,2013-02-12 07:32:00,
2013-02-12 02:42:00,30.0,26.0,30.11,WNW,283,7.0,14.0,86,0.00,,,0.01,,2013-02-12 07:42:00,
2013-02-12 02:52:00,30.0,26.0,30.11,WNW,283,7.0,14.0,86,0.00,,,0.01,,2013-02-12 07:52:00,
2013-02-12 03:01:00,30.0,26.0,30.11,WNW,283,7.0,14.0,86,0.00,,,0.01,,2013-02-12 08:01:00,
2013-02-12 03:11:00,30.0,26.0,30.11,WNW,283,7.0,14.0,86,0.00,,,0.01,,2013-02-12 08:11:00,
2013-02-12 03:32:00,29.0,25.0,30.12,WNW,292,10.0,15.0,83,0.00,,,0.01,,2013-02-12 08:32:00,
2013-02-12 03:42:00,29.0,25.0,30.12,WNW,292,10.0,15.0,83,0.00,,,0.01,,2013-02-12 08:42:00,
2013-02-12 03:52:00,29.0,25.0,30.12,NW,313,12.0,17.0,83,0.00,,,0.01,,2013-02-12 08:52:00,
2013-02-12 04:01:00,29.0,25.0,30.12,WNW,282,9.0,16.0,84,0.00,,,0.01,,2013-02-12 09:01:00,
2013-02-12 04:11:00,29.0,25.0,30.12,WNW,282,9.0,16.0,84,0.00,,,0.01,,2013-02-12 09:11:00,
2013-02-12 04:21:00,29.0,25.0,30.12,WNW,282,9.0,16.0,84,0.00,,,0.01,,2013-02-12 09:21:00,
2013-02-12 04:32:00,29.0,25.0,30.12,WNW,286,13.0,19.0,84,0.00,,,0.01,,2013-02-12 09:32:00,
2013-02-12 04:41:00,29.0,25.0,30.12,WNW,286,13.0,19.0,84,0.00,,,0.01,,2013-02-12 09:41:00,
2013-02-12 04:52:00,29.0,25.0,30.12,WNW,286,13.0,19.0,84,0.00,,,0.01,,2013-02-12 09:52:00,
2013-02-12 05:01:00,29.0,25.0,30.12,WNW,286,13.0,19.0,84,0.00,,,0.01,,2013-02-12 10:01:00,
2013-02-12 06:01:00,28.0,25.0,30.13,West,269,5.0,8.0,87,0.00,,,0.00,,2013-02-12 11:01:00,
2013-02-12 06:11:00,28.0,25.0,30.13,West,269,5.0,8.0,87,0.00,,,0.00,,2013-02-12 11:11:00,
2013-02-12 06:21:00,27.0,24.0,30.14,West,271,4.0,6.0,88,0.00,,,0.00,,2013-02-12 11:21:00,
2013-02-12 06:32:00,27.0,24.0,30.13,WNW,300,5.0,7.0,90,0.00,,,0.00,,2013-02-12 11:32:00,
2013-02-12 06:41:00,27.0,24.0,30.13,WNW,300,5.0,7.0,90,0.00,,,0.00,,2013-02-12 11:41:00,
2013-02-12 06:52:00,27.0,24.0,30.13,WNW,300,5.0,7.0,90,0.00,,,0.00,,2013-02-12 11:52:00,
2013-02-12 07:00:00,27.0,24.0,30.14,WNW,283,7.0,11.0,87,0.00,,,0.00,,2013-02-12 12:00:00,
2013-02-12 07:01:00,28.0,25.0,30.14,WNW,293,6.0,11.0,88,0.00,,,0.00,,2013-02-12 12:01:00,
2013-02-12 07:11:00,28.0,25.0,30.14,WNW,293,6.0,11.0,88,0.00,,,0.00,,2013-02-12 12:11:00,
2013-02-12 07:21:00,27.0,24.0,30.14,WNW,283,7.0,11.0,87,0.00,,,0.00,,2013-02-12 12:21:00,
2013-02-12 07:32:00,27.0,24.0,30.14,WNW,283,7.0,11.0,87,0.00,,,0.00,,2013-02-12 12:32:00,
2013-02-12 07:42:00,27.0,24.0,30.14,WNW,283,7.0,11.0,87,0.00,,,0.00,,2013-02-12 12:42:00,
2013-02-12 07:53:00,27.0,24.0,30.14,WNW,283,7.0,11.0,87,0.00,,,0.00,,2013-02-12 12:53:00,
2013-02-12 08:11:00,27.0,24.0,30.13,NW,317,6.0,12.0,87,0.00,,,0.00,,2013-02-12 13:11:00,
2013-02-12 08:22:00,27.0,24.0,30.13,NW,317,6.0,12.0,87,0.00,,,0.00,,2013-02-12 13:22:00,
2013-02-12 08:32:00,27.0,24.0,30.13,NW,317,5.0,11.0,88,0.00,,,0.00,,2013-02-12 13:32:00,
2013-02-12 08:42:00,27.0,24.0,30.13,NW,317,5.0,11.0,88,0.00,,,0.00,,2013-02-12 13:42:00,
2013-02-12 08:52:00,27.0,24.0,30.15,NW,309,6.0,9.0,89,0.00,,,0.00,,2013-02-12 13:52:00,
2013-02-12 09:01:00,27.0,24.0,30.15,NW,309,5.0,10.0,87,0.00,,,0.00,,2013-02-12 14:01:00,
2013-02-12 09:11:00,27.0,24.0,30.15,NW,309,5.0,10.0,87,0.00,,,0.00,,2013-02-12 14:11:00,
2013-02-12 09:21:00,28.0,25.0,30.16,NW,313,5.0,8.0,87,0.00,,,0.00,,2013-02-12 14:21:00,
2013-02-12 09:32:00,28.0,24.0,30.15,NNW,337,3.0,8.0,86,0.00,,,0.00,,2013-02-12 14:32:00,
2013-02-12 09:42:00,28.0,24.0,30.15,NNW,337,3.0,8.0,86,0.00,,,0.00,,2013-02-12 14:42:00,
2013-02-12 09:52:00,28.0,24.0,30.15,NW,322,4.0,7.0,86,0.00,,,0.00,,2013-02-12 14:52:00,
2013-02-12 10:02:00,29.0,25.0,30.15,West,272,5.0,7.0,86,0.00,,,0.00,,2013-02-12 15:02:00,
2013-02-12 10:11:00,29.0,25.0,30.14,West,259,4.0,8.0,84,0.00,,,0.00,,2013-02-12 15:11:00,
2013-02-12 10:21:00,29.0,25.0,30.14,West,259,4.0,8.0,84,0.00,,,0.00,,2013-02-12 15:21:00,
2013-02-12 10:32:00,29.0,25.0,30.15,WSW,254,5.0,9.0,84,0.00,,,0.00,,2013-02-12 15:32:00,
2013-02-12 10:42:00,29.0,25.0,30.15,WSW,254,5.0,9.0,84,0.00,,,0.00,,2013-02-12 15:42:00,
2013-02-12 10:52:00,29.0,25.0,30.15,WNW,300,6.0,8.0,84,0.00,,,0.00,,2013-02-12 15:52:00,
2013-02-12 11:01:00,30.0,26.0,30.16,WNW,298,6.0,13.0,84,0.00,,,0.00,,2013-02-12 16:01:00,
2013-02-12 11:11:00,30.0,26.0,30.16,WNW,298,6.0,13.0,84,0.00,,,0.00,,2013-02-12 16:11:00,
2013-02-12 11:22:00,30.0,26.0,30.15,WNW,290,5.0,10.0,84,0.00,,,0.00,,2013-02-12 16:22:00,
2013-02-12 11:31:00,30.0,25.0,30.15,West,273,5.0,10.0,83,0.00,,,0.00,,2013-02-12 16:31:00,
2013-02-12 11:41:00,30.0,25.0,30.15,West,273,5.0,10.0,83,0.00,,,0.00,,2013-02-12 16:41:00,
2013-02-12 11:52:00,31.0,26.0,30.14,West,274,5.0,10.0,82,0.00,,,0.00,,2013-02-12 16:52:00,
2013-02-12 12:01:00,30.0,25.0,30.14,West,264,6.0,11.0,83,0.00,,,0.00,,2013-02-12 17:01:00,
2013-02-12 12:12:00,30.0,25.0,30.14,West,264,6.0,11.0,83,0.00,,,0.00,,2013-02-12 17:12:00,
2013-02-12 12:21:00,31.0,26.0,30.14,WSW,253,7.0,10.0,83,0.00,,,0.00,,2013-02-12 17:21:00,
2013-02-12 12:32:00,30.0,26.0,30.12,WNW,292,6.0,11.0,84,0.00,,,0.00,,2013-02-12 17:32:00,
2013-02-12 12:42:00,30.0,26.0,30.12,WNW,292,6.0,11.0,84,0.00,,,0.00,,2013-02-12 17:42:00,
2013-02-12 12:52:00,30.0,25.0,30.11,NW,315,6.0,11.0,83,0.00,,,0.00,,2013-02-12 17:52:00,
2013-02-12 13:01:00,31.0,26.0,30.10,WSW,253,4.0,9.0,83,0.00,,,0.00,,2013-02-12 18:01:00,
2013-02-12 13:11:00,31.0,26.0,30.10,WSW,253,4.0,9.0,83,0.00,,,0.00,,2013-02-12 18:11:00,
2013-02-12 13:23:00,31.0,26.0,30.09,West,275,5.0,10.0,82,0.00,,,0.00,,2013-02-12 18:23:00,
2013-02-12 13:31:00,31.0,26.0,30.09,West,265,5.0,10.0,83,0.00,,,0.00,,2013-02-12 18:31:00,
2013-02-12 13:41:00,31.0,26.0,30.09,West,265,5.0,10.0,83,0.00,,,0.00,,2013-02-12 18:41:00,
2013-02-12 13:52:00,31.0,26.0,30.09,West,281,7.0,10.0,82,0.00,,,0.00,,2013-02-12 18:52:00,
2013-02-12 14:02:00,31.0,26.0,30.08,NW,305,8.0,12.0,83,0.00,,,0.00,,2013-02-12 19:02:00,
2013-02-12 14:11:00,31.0,26.0,30.08,NW,305,8.0,12.0,83,0.00,,,0.00,,2013-02-12 19:11:00,
2013-02-12 14:21:00,31.0,26.0,30.07,West,269,5.0,14.0,82,0.00,,,0.00,,2013-02-12 19:21:00,
2013-02-12 14:31:00,31.0,26.0,30.09,West,279,8.0,12.0,83,0.00,,,0.00,,2013-02-12 19:31:00,
2013-02-12 14:41:00,31.0,26.0,30.09,West,279,8.0,12.0,83,0.00,,,0.00,,2013-02-12 19:41:00,
2013-02-12 14:52:00,31.0,27.0,30.09,SW,223,5.0,10.0,84,0.00,,,0.00,,2013-02-12 19:52:00,
2013-02-12 15:01:00,31.0,26.0,30.09,WSW,257,7.0,12.0,83,0.00,,,0.00,,2013-02-12 20:01:00,
2013-02-12 15:11:00,31.0,26.0,30.09,WSW,257,7.0,12.0,83,0.00,,,0.00,,2013-02-12 20:11:00,
2013-02-12 15:21:00,31.0,26.0,30.10,WSW,254,6.0,11.0,83,0.00,,,0.00,,2013-02-12 20:21:00,
2013-02-12 15:31:00,31.0,27.0,30.09,West,271,6.0,11.0,85,0.00,,,0.00,,2013-02-12 20:31:00,
2013-02-12 15:41:00,31.0,27.0,30.09,West,271,6.0,11.0,85,0.00,,,0.00,,2013-02-12 20:41:00,
2013-02-12 15:52:00,31.0,27.0,30.09,West,281,5.0,11.0,85,0.00,,,0.00,,2013-02-12 20:52:00,
2013-02-12 16:01:00,31.0,27.0,30.09,WSW,250,5.0,11.0,84,0.00,,,0.00,,2013-02-12 21:01:00,
2013-02-12 16:11:00,31.0,27.0,30.09,WSW,250,5.0,11.0,84,0.00,,,0.00,,2013-02-12 21:11:00,
2013-02-12 16:21:00,31.0,26.0,30.09,WNW,298,7.0,11.0,82,0.00,,,0.00,,2013-02-12 21:21:00,
2013-02-12 16:31:00,31.0,27.0,30.08,WNW,295,6.0,11.0,84,0.00,,,0.00,,2013-02-12 21:31:00,
2013-02-12 16:42:00,31.0,26.0,30.08,West,263,6.0,10.0,83,0.00,,,0.00,,2013-02-12 21:42:00,
2013-02-12 16:52:00,31.0,26.0,30.08,West,263,6.0,10.0,83,0.00,,,0.00,,2013-02-12 21:52:00,
2013-02-12 17:01:00,31.0,26.0,30.07,West,270,7.0,12.0,83,0.00,,,0.00,,2013-02-12 22:01:00,
2013-02-12 17:12:00,31.0,26.0,30.07,West,270,7.0,12.0,83,0.00,,,0.00,,2013-02-12 22:12:00,
2013-02-12 17:21:00,31.0,27.0,30.06,WNW,283,6.0,11.0,85,0.00,,,0.00,,2013-02-12 22:21:00,
2013-02-12 17:32:00,31.0,27.0,30.06,West,266,7.0,10.0,84,0.00,,,0.00,,2013-02-12 22:32:00,
2013-02-12 17:42:00,31.0,27.0,30.06,West,266,7.0,10.0,84,0.00,,,0.00,,2013-02-12 22:42:00,
2013-02-12 17:52:00,30.0,25.0,30.05,WNW,294,7.0,10.0,83,0.00,,,0.00,,2013-02-12 22:52:00,
2013-02-12 18:01:00,30.0,25.0,30.05,West,277,5.0,11.0,83,0.00,,,0.00,,2013-02-12 23:01:00,
2013-02-12 18:11:00,30.0,26.0,30.04,West,281,5.0,10.0,84,0.00,,,0.00,,2013-02-12 23:11:00,
2013-02-12 18:21:00,30.0,26.0,30.04,West,281,5.0,10.0,84,0.00,,,0.00,,2013-02-12 23:21:00,
2013-02-12 18:31:00,30.0,26.0,30.05,WNW,284,6.0,10.0,85,0.00,,,0.00,,2013-02-12 23:31:00,
2013-02-12 18:42:00,30.0,26.0,30.05,WNW,284,6.0,10.0,85,0.00,,,0.00,,2013-02-12 23:42:00,
2013-02-12 18:52:00,30.0,26.0,30.05,WNW,298,6.0,9.0,86,0.00,,,0.00,,2013-02-12 23:52:00,
2013-02-12 19:02:00,30.0,26.0,30.05,West,264,5.0,8.0,85,0.00,,,0.00,,2013-02-13 00:02:00,
2013-02-12 19:11:00,30.0,26.0,30.05,West,264,5.0,8.0,85,0.00,,,0.00,,2013-02-13 00:11:00,
2013-02-12 19:21:00,29.0,25.0,30.04,WNW,296,5.0,8.0,85,0.00,,,0.00,,2013-02-13 00:21:00,
2013-02-12 19:32:00,29.0,26.0,30.03,WNW,303,3.0,5.0,87,0.00,,,0.00,,2013-02-13 00:32:00,
2013-02-12 19:42:00,29.0,26.0,30.03,WNW,303,3.0,5.0,87,0.00,,,0.00,,2013-02-13 00:42:00,
2013-02-12 19:52:00,28.0,25.0,30.03,WNW,296,1.0,3.0,88,0.00,,,0.00,,2013-02-13 00:52:00,
2013-02-12 20:01:00,28.0,25.0,30.03,WNW,296,0.0,0.0,89,0.00,,,0.00,,2013-02-13 01:01:00,
2013-02-12 20:11:00,28.0,25.0,30.03,WNW,296,0.0,0.0,89,0.00,,,0.00,,2013-02-13 01:11:00,
2013-02-12 20:21:00,28.0,25.0,30.02,WNW,296,0.0,0.0,90,0.00,,,0.00,,2013-02-13 01:21:00,
2013-02-12 20:31:00,28.0,25.0,30.03,WNW,296,0.0,0.0,90,0.00,,,0.00,,2013-02-13 01:31:00,
2013-02-12 20:42:00,28.0,25.0,30.03,WNW,296,0.0,0.0,90,0.00,,,0.00,,2013-02-13 01:42:00,
2013-02-12 20:52:00,27.0,24.0,30.02,WNW,296,0.0,0.0,90,0.00,,,0.00,,2013-02-13 01:52:00,
2013-02-12 21:01:00,27.0,25.0,30.01,WNW,296,0.0,0.0,91,0.00,,,0.00,,2013-02-13 02:01:00,
2013-02-12 21:11:00,27.0,25.0,30.01,WNW,296,0.0,0.0,91,0.00,,,0.00,,2013-02-13 02:11:00,
2013-02-12 21:21:00,27.0,25.0,30.01,WNW,296,0.0,0.0,91,0.00,,,0.00,,2013-02-13 02:21:00,
2013-02-12 21:31:00,26.0,24.0,30.01,WNW,296,0.0,0.0,91,0.00,,,0.00,,2013-02-13 02:31:00,
2013-02-12 21:41:00,26.0,24.0,30.01,WNW,296,0.0,0.0,91,0.00,,,0.00,,2013-02-13 02:41:00,
2013-02-12 21:52:00,26.0,24.0,30.00,WNW,296,0.0,0.0,91,0.00,,,0.00,,2013-02-13 02:52:00,
2013-02-12 22:01:00,26.0,24.0,30.00,West,267,0.0,1.0,93,0.00,,,0.00,,2013-02-13 03:01:00,
2013-02-12 22:11:00,26.0,24.0,30.01,West,267,0.0,0.0,93,0.00,,,0.00,,2013-02-13 03:11:00,
2013-02-12 22:21:00,26.0,24.0,30.01,West,267,0.0,0.0,93,0.00,,,0.00,,2013-02-13 03:21:00,
2013-02-12 22:32:00,26.0,24.0,30.01,West,267,0.0,1.0,93,0.00,,,0.00,,2013-02-13 03:32:00,
2013-02-12 22:41:00,26.0,24.0,30.01,West,267,0.0,1.0,93,0.00,,,0.00,,2013-02-13 03:41:00,
2013-02-12 22:52:00,25.0,23.0,30.01,West,267,0.0,0.0,92,0.00,,,0.00,,2013-02-13 03:52:00,
2013-02-12 23:01:00,25.0,24.0,30.00,West,267,0.0,0.0,94,0.00,,,0.00,,2013-02-13 04:01:00,
2013-02-12 23:11:00,25.0,24.0,30.00,West,267,0.0,0.0,94,0.00,,,0.00,,2013-02-13 04:11:00,
2013-02-12 23:21:00,25.0,24.0,29.99,NNW,330,0.0,0.0,94,0.00,,,0.00,,2013-02-13 04:21:00,
2013-02-12 23:31:00,25.0,24.0,29.98,NNW,337,0.0,0.0,94,0.00,,,0.00,,2013-02-13 04:31:00,
2013-02-12 23:41:00,25.0,24.0,29.98,NNW,337,0.0,0.0,94,0.00,,,0.00,,2013-02-13 04:41:00,
2013-02-12 23:52:00,25.0,24.0,29.99,NNW,337,0.0,0.0,94,0.00,,,0.00,,2013-02-13 04:52:00,